Weather History for KDUA - November, 2012

Change the Weather History Date:

Thursday, November 29, 2012

  Actual Average (KADM) Record (KADM)
Temperature  
Mean Temperature 52 °F -  
Max Temperature 68 °F 57 °F 84 °F (1998)
Min Temperature 35 °F 39 °F 23 °F (2013)
Degree Days  
Heating Degree Days 14    
Growing Degree Days 2 (Base 50)    
Moisture  
Dew Point 36 °F    
Average Humidity 62    
Maximum Humidity 93    
Minimum Humidity 26    
Precipitation  
Precipitation 0.00 in - - ()
Sea Level Pressure  
Sea Level Pressure 30.18 in    
Wind  
Wind Speed 7 mph (SSE)    
Max Wind Speed 20 mph    
Max Gust Speed 22 mph    
Visibility 10 miles    
Events      
Averages and records for this station are not official NWS values.
T = Trace of Precipitation, MM = Missing Value Source: NWS Daily Summary

Daily Weather History Graph

Daily Weather History Graph

Search for Another Location

Airport or City:

Trip Planner

Search our weather history database for the weather conditions in past years. The results will help you decide how hot, cold, wet, or windy it might be!

Date:

Astronomy

Nov. 29, 2012 Rise Set
Actual Time 7:11 AM CST 5:16 PM CST
Civil Twilight 6:44 AM CST 5:43 PM CST
Nautical Twilight 6:13 AM CST 6:14 PM CST
Astronomical Twilight 5:43 AM CST 6:44 PM CST
Moon 6:20 PM CST (11/29) 7:58 AM CST (11/29)
Length of Visible Light 10h 59m
Length of Day
10h 05m
Full, 99% of the Moon is Illuminated
Nov 29
Full
Dec 6
Last Quarter
Dec 13
New
Dec 19
First Quarter
Dec 28
Full

Hourly Weather History & Observations

Time (CST) Temp. Windchill Dew Point Humidity Pressure Visibility Wind Dir Wind Speed Gust Speed Precip Events Conditions
12:15 AM 41.0 °F 38.0 °F 32.0 °F 70% 30.27 in 10.0 mi SE 4.6 mph - N/A   Clear
12:35 AM 37.4 °F 33.8 °F 32.0 °F 81% 30.26 in 10.0 mi SE 4.6 mph - N/A   Clear
12:55 AM 37.4 °F 34.9 °F 32.0 °F 81% 30.26 in 10.0 mi ESE 3.5 mph - N/A   Clear
1:15 AM 37.4 °F 33.8 °F 32.0 °F 81% 30.26 in 10.0 mi SE 4.6 mph - N/A   Clear
1:35 AM 37.4 °F 34.9 °F 32.0 °F 81% 30.26 in 10.0 mi ESE 3.5 mph - N/A   Clear
1:55 AM 37.4 °F 32.8 °F 32.0 °F 81% 30.25 in 10.0 mi SE 5.8 mph - N/A   Clear
2:15 AM 37.4 °F 32.1 °F 32.0 °F 81% 30.25 in 10.0 mi SE 6.9 mph - N/A   Clear
2:55 AM 41.0 °F 38.0 °F 33.8 °F 76% 30.25 in 10.0 mi SSE 4.6 mph - N/A   Clear
3:15 AM 39.2 °F 37.0 °F 32.0 °F 75% 30.24 in 10.0 mi SE 3.5 mph - N/A   Clear
3:35 AM 37.4 °F - 32.0 °F 81% 30.24 in 10.0 mi Calm Calm - N/A   Clear
3:55 AM 37.4 °F 34.9 °F 32.0 °F 81% 30.24 in 10.0 mi SE 3.5 mph - N/A   Clear
4:15 AM 37.4 °F 32.8 °F 32.0 °F 81% 30.23 in 10.0 mi SE 5.8 mph - N/A   Clear
4:35 AM 37.4 °F 33.8 °F 32.0 °F 81% 30.23 in 10.0 mi ESE 4.6 mph - N/A   Clear
4:55 AM 37.4 °F 33.8 °F 32.0 °F 81% 30.23 in 10.0 mi SE 4.6 mph - N/A   Clear
5:15 AM 37.4 °F 32.8 °F 32.0 °F 81% 30.23 in 10.0 mi SE 5.8 mph - N/A   Clear
5:35 AM 37.4 °F 33.8 °F 32.0 °F 81% 30.23 in 10.0 mi SE 4.6 mph - N/A   Clear
5:55 AM 35.6 °F 31.7 °F 32.0 °F 87% 30.23 in 10.0 mi ESE 4.6 mph - N/A   Clear
6:15 AM 35.6 °F 32.8 °F 32.0 °F 87% 30.24 in 10.0 mi SE 3.5 mph - N/A   Clear
6:35 AM 35.6 °F 31.7 °F 33.8 °F 93% 30.24 in 10.0 mi ESE 4.6 mph - N/A   Clear
7:15 AM 35.6 °F 29.9 °F 32.0 °F 87% 30.25 in 10.0 mi SE 6.9 mph - N/A   Clear
7:35 AM 35.6 °F 30.7 °F 32.0 °F 87% 30.25 in 10.0 mi ESE 5.8 mph - N/A   Clear
8:15 AM 37.4 °F 31.4 °F 35.6 °F 93% 30.25 in 10.0 mi SE 8.1 mph - N/A   Clear
8:35 AM 41.0 °F 35.8 °F 35.6 °F 81% 30.25 in 10.0 mi SE 8.1 mph - N/A   Clear
8:55 AM 42.8 °F 37.5 °F 35.6 °F 76% 30.25 in 10.0 mi SE 9.2 mph - N/A   Clear
9:15 AM 44.6 °F 39.7 °F 37.4 °F 76% 30.25 in 10.0 mi SE 9.2 mph - N/A   Clear
9:35 AM 48.2 °F - 39.2 °F 71% 30.25 in 10.0 mi SSE 8.1 mph - N/A   Clear
9:55 AM 50.0 °F - 39.2 °F 66% 30.25 in 10.0 mi SSE 9.2 mph - N/A   Clear
10:15 AM 51.8 °F - 41.0 °F 67% 30.25 in 10.0 mi SSE 10.4 mph - N/A   Clear
10:55 AM 55.4 °F - 42.8 °F 63% 30.23 in 10.0 mi South 12.7 mph 17.3 mph N/A   Clear
11:15 AM 59.0 °F - 42.8 °F 55% 30.22 in 10.0 mi South 10.4 mph - N/A   Clear
11:55 AM 60.8 °F - 42.8 °F 52% 30.20 in 10.0 mi South 15.0 mph - N/A   Clear
12:15 PM 62.6 °F - 41.0 °F 45% 30.20 in 10.0 mi South 11.5 mph 19.6 mph N/A   Clear
12:35 PM 62.6 °F - 39.2 °F 42% 30.19 in 10.0 mi South 12.7 mph - N/A   Clear
12:55 PM 62.6 °F - 39.2 °F 42% 30.17 in 10.0 mi SSE 12.7 mph - N/A   Clear
1:15 PM 64.4 °F - 37.4 °F 37% 30.16 in 10.0 mi South 19.6 mph - N/A   Clear
1:35 PM 64.4 °F - 35.6 °F 34% 30.15 in 10.0 mi South 13.8 mph 21.9 mph N/A   Clear
1:55 PM 66.2 °F - 35.6 °F 32% 30.14 in 10.0 mi South 16.1 mph - N/A   Clear
2:15 PM 68.0 °F - 35.6 °F 30% 30.13 in 10.0 mi South 15.0 mph 19.6 mph N/A   Clear
2:35 PM 68.0 °F - 33.8 °F 28% 30.12 in 10.0 mi South 17.3 mph 21.9 mph N/A   Clear
3:15 PM 68.0 °F - 33.8 °F 28% 30.11 in 10.0 mi SSE 16.1 mph 19.6 mph N/A   Clear
3:35 PM 68.0 °F - 33.8 °F 28% 30.10 in 10.0 mi SSE 15.0 mph - N/A   Clear
3:55 PM 68.0 °F - 32.0 °F 26% 30.11 in 10.0 mi South 18.4 mph - N/A   Clear
4:15 PM 68.0 °F - 33.8 °F 28% 30.10 in 10.0 mi South 13.8 mph 19.6 mph N/A   Clear
4:35 PM 66.2 °F - 37.4 °F 35% 30.10 in 10.0 mi SSE 13.8 mph - N/A   Clear
4:55 PM 64.4 °F - 35.6 °F 34% 30.10 in 10.0 mi SSE 15.0 mph - N/A   Clear
5:15 PM 62.6 °F - 35.6 °F 37% 30.09 in 10.0 mi SSE 13.8 mph 19.6 mph N/A   Clear
5:35 PM 60.8 °F - 35.6 °F 39% 30.10 in 10.0 mi SSE 11.5 mph - N/A   Clear
5:55 PM 59.0 °F - 35.6 °F 42% 30.10 in 10.0 mi SSE 9.2 mph - N/A   Clear
6:15 PM 57.2 °F - 37.4 °F 48% 30.11 in 10.0 mi SSE 10.4 mph - N/A   Clear
6:35 PM 57.2 °F - 37.4 °F 48% 30.11 in 10.0 mi SSE 8.1 mph - N/A   Clear
6:55 PM 55.4 °F - 37.4 °F 51% 30.12 in 10.0 mi South 8.1 mph - N/A   Clear
7:15 PM 53.6 °F - 37.4 °F 54% 30.12 in 10.0 mi SSE 9.2 mph - N/A   Clear
7:35 PM 53.6 °F - 37.4 °F 54% 30.12 in 10.0 mi SSE 8.1 mph - N/A   Clear
7:55 PM 53.6 °F - 37.4 °F 54% 30.12 in 10.0 mi SSE 9.2 mph - N/A   Clear
8:15 PM 53.6 °F - 37.4 °F 54% 30.11 in 10.0 mi SSE 10.4 mph - N/A   Clear
8:35 PM 53.6 °F - 37.4 °F 54% 30.12 in 10.0 mi SSE 8.1 mph - N/A   Clear
8:55 PM 53.6 °F - 37.4 °F 54% 30.12 in 10.0 mi SSE 9.2 mph - N/A   Clear
9:15 PM 53.6 °F - 37.4 °F 54% 30.12 in 10.0 mi SSE 9.2 mph - N/A   Clear
9:35 PM 53.6 °F - 37.4 °F 54% 30.12 in 10.0 mi SSE 8.1 mph - N/A   Clear
9:55 PM 51.8 °F - 39.2 °F 62% 30.12 in 10.0 mi SSE 8.1 mph - N/A   Clear
10:15 PM 51.8 °F - 41.0 °F 67% 30.12 in 10.0 mi SSE 8.1 mph - N/A   Clear
10:35 PM 51.8 °F - 41.0 °F 67% 30.13 in 10.0 mi SSE 5.8 mph - N/A   Clear
10:55 PM 50.0 °F - 41.0 °F 71% 30.13 in 10.0 mi SE 5.8 mph - N/A   Clear
11:15 PM 50.0 °F - 41.0 °F 71% 30.13 in 10.0 mi SE 5.8 mph - N/A   Clear
11:35 PM 50.0 °F - 42.8 °F 76% 30.13 in 10.0 mi SE 4.6 mph - N/A   Clear
11:55 PM 48.2 °F - 41.0 °F 76% 30.14 in 10.0 mi ESE 4.6 mph - N/A   Clear